, LA

(GMT )
East Cameron 278

Weather History for KEHC - May, 2014

Change the Weather History Date:

Sunday, May 18, 2014

  Actual Average Record
Temperature  
Mean Temperature 76 °F -  
Max Temperature 78 °F - - ()
Min Temperature 71 °F - - ()
Cooling Degree Days 10    
Growing Degree Days 26 (Base 50)    
Moisture  
Dew Point 66 °F    
Average Humidity 72    
Maximum Humidity 78    
Minimum Humidity 65    
Precipitation  
Precipitation 0.00 in - - ()
Sea Level Pressure  
Sea Level Pressure 30.11 in    
Wind  
Wind Speed 15 mph (ESE)    
Max Wind Speed 20 mph    
Max Gust Speed -    
Visibility 10 miles    
Events      
Averages and records for this station are not official NWS values.
T = Trace of Precipitation, MM = Missing Value Source: NWS Daily Summary

Daily Weather History Graph

Daily Weather History Graph

Search for Another Location

Airport or City:

Trip Planner

Search our weather history database for the weather conditions in past years. The results will help you decide how hot, cold, wet, or windy it might be!

Date:

Astronomy

May. 18, 2014 Rise Set
Actual Time 6:19 AM CDT 7:56 PM CDT
Civil Twilight 5:53 AM CDT 8:22 PM CDT
Nautical Twilight 5:22 AM CDT 8:53 PM CDT
Astronomical Twilight 4:50 AM CDT 9:26 PM CDT
Moon 11:51 PM CDT (5/18) 10:05 AM CDT (5/18)
Length of Visible Light 14h 29m
Length of Day
13h 37m
Waning Gibbous, 81% of the Moon is Illuminated
May 18
Waning Gibbous
May 21
Last Quarter
May 28
New
Jun 5
First Quarter
Jun 12
Full

Hourly Weather History & Observations

Time (CDT) Temp. Dew Point Humidity Pressure Visibility Wind Dir Wind Speed Gust Speed Precip Events Conditions
12:15 AM 73.4 °F 66.2 °F 78% 30.11 in 10.0 mi SE 16.1 mph - N/A   Clear
12:35 AM 73.4 °F 66.2 °F 78% 30.11 in 10.0 mi SE 16.1 mph - N/A   Clear
12:55 AM 75.2 °F 66.2 °F 73% 30.10 in 10.0 mi SE 18.4 mph - N/A   Unknown
1:15 AM 75.2 °F 66.2 °F 73% 30.10 in 10.0 mi SE 19.6 mph - N/A   Unknown
1:35 AM 75.2 °F 66.2 °F 73% 30.10 in 10.0 mi SE 19.6 mph - N/A   Unknown
1:55 AM 75.2 °F 64.4 °F 69% 30.09 in 10.0 mi SE 18.4 mph - N/A   Unknown
2:15 AM 75.2 °F 64.4 °F 69% 30.09 in 10.0 mi SE 17.3 mph - N/A   Unknown
2:35 AM 75.2 °F 64.4 °F 69% 30.08 in 10.0 mi SE 18.4 mph - N/A   Unknown
2:55 AM 75.2 °F 64.4 °F 69% 30.08 in 10.0 mi SE 18.4 mph - N/A   Unknown
3:15 AM 75.2 °F 64.4 °F 69% 30.08 in 10.0 mi SE 17.3 mph - N/A   Unknown
3:35 AM 75.2 °F 64.4 °F 69% 30.08 in 10.0 mi SE 17.3 mph - N/A   Unknown
3:55 AM 75.2 °F 64.4 °F 69% 30.08 in 10.0 mi SE 17.3 mph - N/A   Clear
4:15 AM 75.2 °F 64.4 °F 69% 30.09 in 10.0 mi SE 17.3 mph - N/A   Clear
4:35 AM 75.2 °F 64.4 °F 69% 30.09 in 10.0 mi SE 17.3 mph - N/A   Clear
4:55 AM 75.2 °F 64.4 °F 69% 30.09 in 10.0 mi SE 16.1 mph - N/A   Clear
5:15 AM 75.2 °F 64.4 °F 69% 30.09 in 10.0 mi SE 13.8 mph - N/A   Clear
5:35 AM 75.2 °F 64.4 °F 69% 30.10 in 10.0 mi SE 12.7 mph - N/A   Clear
5:55 AM 75.2 °F 64.4 °F 69% 30.10 in 10.0 mi SE 12.7 mph - N/A   Clear
6:15 AM 75.2 °F 64.4 °F 69% 30.10 in 10.0 mi SE 11.5 mph - N/A   Clear
6:35 AM 73.4 °F 64.4 °F 73% 30.11 in 10.0 mi SE 11.5 mph - N/A   Clear
6:55 AM 75.2 °F 64.4 °F 69% 30.11 in 10.0 mi SE 10.4 mph - N/A   Clear
7:15 AM 73.4 °F 64.4 °F 73% 30.11 in 9.0 mi SE 9.2 mph - N/A   Clear
7:35 AM 73.4 °F 66.2 °F 78% 30.11 in 9.0 mi ESE 9.2 mph - N/A   Clear
7:55 AM 73.4 °F 64.4 °F 73% 30.12 in 10.0 mi ESE 8.1 mph - N/A   Clear
8:15 AM 73.4 °F 66.2 °F 78% 30.12 in 9.0 mi ESE 8.1 mph - N/A   Clear
8:35 AM 73.4 °F 66.2 °F 78% 30.13 in 10.0 mi ESE 8.1 mph - N/A   Clear
8:55 AM 73.4 °F 66.2 °F 78% 30.13 in 9.0 mi ESE 5.8 mph - N/A   Clear
9:15 AM 73.4 °F 66.2 °F 78% 30.13 in 10.0 mi East 5.8 mph - N/A   Clear
9:35 AM 73.4 °F 66.2 °F 78% 30.14 in 10.0 mi East 6.9 mph - N/A   Clear
9:55 AM 73.4 °F 66.2 °F 78% 30.14 in 10.0 mi East 8.1 mph - N/A   Clear
10:15 AM 75.2 °F 68.0 °F 78% 30.14 in 10.0 mi East 8.1 mph - N/A   Clear
10:35 AM 75.2 °F 68.0 °F 78% 30.15 in 9.0 mi East 8.1 mph - N/A   Unknown
10:55 AM 75.2 °F 66.2 °F 73% 30.15 in 9.0 mi East 8.1 mph - N/A   Unknown
11:15 AM 75.2 °F 66.2 °F 73% 30.15 in 10.0 mi East 10.4 mph - N/A   Unknown
11:35 AM 77.0 °F 68.0 °F 74% 30.15 in 10.0 mi East 10.4 mph - N/A   Unknown
11:55 AM 77.0 °F 68.0 °F 74% 30.15 in 9.0 mi East 9.2 mph - N/A   Unknown
12:15 PM 77.0 °F 66.2 °F 69% 30.15 in 10.0 mi East 10.4 mph - N/A   Unknown
12:35 PM 78.8 °F 66.2 °F 65% 30.14 in 10.0 mi East 11.5 mph - N/A   Unknown
12:55 PM 78.8 °F 66.2 °F 65% 30.14 in 9.0 mi ESE 11.5 mph - N/A   Unknown
1:15 PM 78.8 °F 68.0 °F 69% 30.14 in 10.0 mi East 12.7 mph - N/A   Unknown
1:35 PM 78.8 °F 66.2 °F 65% 30.14 in 9.0 mi ESE 12.7 mph - N/A   Unknown
1:55 PM 78.8 °F 68.0 °F 69% 30.13 in 9.0 mi ESE 13.8 mph - N/A   Unknown
2:15 PM 78.8 °F 68.0 °F 69% 30.13 in 9.0 mi East 13.8 mph - N/A   Unknown
2:35 PM 78.8 °F 68.0 °F 69% 30.13 in 10.0 mi East 12.7 mph - N/A   Unknown
2:55 PM 78.8 °F 68.0 °F 69% 30.12 in 10.0 mi ESE 15.0 mph - N/A   Unknown
3:15 PM 78.8 °F 68.0 °F 69% 30.12 in 10.0 mi ESE 15.0 mph - N/A   Unknown
3:35 PM 78.8 °F 68.0 °F 69% 30.11 in 10.0 mi ESE 15.0 mph - N/A   Unknown
3:55 PM 78.8 °F 68.0 °F 69% 30.11 in 10.0 mi ESE 15.0 mph - N/A   Clear
4:15 PM 78.8 °F 68.0 °F 69% 30.11 in 10.0 mi ESE 13.8 mph - N/A   Clear
4:35 PM 78.8 °F 66.2 °F 65% 30.10 in 10.0 mi ESE 15.0 mph - N/A   Clear
4:55 PM 78.8 °F 66.2 °F 65% 30.10 in 10.0 mi East 16.1 mph - N/A   Clear
5:15 PM 78.8 °F 66.2 °F 65% 30.10 in 9.0 mi ESE 15.0 mph - N/A   Clear
5:35 PM 77.0 °F 66.2 °F 69% 30.10 in 9.0 mi East 16.1 mph - N/A   Clear
5:55 PM 77.0 °F 66.2 °F 69% 30.09 in 10.0 mi East 17.3 mph - N/A   Clear
6:15 PM 77.0 °F 66.2 °F 69% 30.09 in 9.0 mi ESE 17.3 mph - N/A   Clear
6:35 PM 77.0 °F 66.2 °F 69% 30.09 in 9.0 mi ESE 16.1 mph - N/A   Clear
6:55 PM 75.2 °F 66.2 °F 73% 30.09 in 10.0 mi ESE 17.3 mph - N/A   Clear
7:15 PM 75.2 °F 66.2 °F 73% 30.09 in 10.0 mi ESE 17.3 mph - N/A   Clear
7:35 PM 75.2 °F 66.2 °F 73% 30.10 in 10.0 mi ESE 17.3 mph - N/A   Clear
7:55 PM 73.4 °F 66.2 °F 78% 30.10 in 9.0 mi ESE 16.1 mph - N/A   Clear
8:15 PM 73.4 °F 66.2 °F 78% 30.10 in 10.0 mi ESE 15.0 mph - N/A   Unknown
8:35 PM 73.4 °F 64.4 °F 73% 30.10 in 10.0 mi ESE 16.1 mph - N/A   Unknown
8:55 PM 73.4 °F 66.2 °F 78% 30.10 in 10.0 mi ESE 15.0 mph - N/A   Clear
9:15 PM 73.4 °F 66.2 °F 78% 30.10 in 10.0 mi ESE 15.0 mph - N/A   Clear
9:35 PM 73.4 °F 64.4 °F 73% 30.10 in 10.0 mi ESE 17.3 mph - N/A   Unknown
9:55 PM 73.4 °F 64.4 °F 73% 30.11 in 10.0 mi ESE 16.1 mph - N/A   Unknown
10:15 PM 73.4 °F 64.4 °F 73% 30.11 in 10.0 mi ESE 16.1 mph - N/A   Unknown
10:35 PM 73.4 °F 64.4 °F 73% 30.11 in 10.0 mi ESE 16.1 mph - N/A   Unknown
10:55 PM 73.4 °F 64.4 °F 73% 30.12 in 10.0 mi ESE 17.3 mph - N/A   Unknown
11:15 PM 73.4 °F 64.4 °F 73% 30.12 in 10.0 mi ESE 16.1 mph - N/A   Unknown
11:35 PM 73.4 °F 64.4 °F 73% 30.12 in 10.0 mi ESE 17.3 mph - N/A   Unknown
11:55 PM 71.6 °F 64.4 °F 78% 30.11 in 10.0 mi ESE 17.3 mph - N/A   Unknown